[[{"header":{"parameterUnit":"m.s-1","parameterCategory":1,"la1":30.2991,"la2":30.254,"lo1":-89.0895,"lo2":-89.0444,"dx":0.0017,"dy":0.0017,"nx":28,"ny":28,"refTime":"2022-12-12T03:00:00:Z","depth":0,"parameterNumber":2,"parameterNumberName":"U-component_of_WINDS"},"data":[0,0,0,0,0,0,0,0,0,0,0,0,0,0,0,0,0,0,0,0,0,0,0,0,0,0,0,0,0,0,0,0,0,0,0,0,0,0,0,0,0,0,0,0,0,0,0,0,0,0,0,0,0,0,0,0,0,0,-0.1009,-0.1009,0,-0.1014,-0.1014,-0.1015,-0.1053,-0.1054,-0.1054,-0.1055,-0.106,-0.1059,-0.1059,0,0,0,0,0,0,0,0,0,0,0,0,0,-0.1029,-0.1028,-0.1009,-0.1009,-0.1009,-0.1014,-0.1014,-0.1015,-0.1052,-0.1054,-0.1055,-0.1056,-0.106,-0.106,-0.1059,0,0,0,0,0,0,0,0,0,0,0,0,0,-0.1026,-0.1028,-0.1009,-0.1028,-0.103,-0.1014,-0.1014,-0.1015,-0.1052,-0.1054,-0.1055,-0.1056,-0.1061,-0.106,-0.1059,-0.1024,0,0,-0.1055,-0.1055,0,0,0,0,0,0,0,0,-0.1026,-0.1025,-0.1025,-0.1027,-0.1029,-0.1034,-0.1023,-0.1018,-0.1052,-0.1044,-0.1055,-0.1057,-0.105,-0.105,-0.1048,-0.1024,-0.1024,-0.1055,-0.1054,-0.1054,-0.1054,0,0,0,0,0,0,0,-0.1026,-0.1025,-0.1011,-0.1025,-0.1028,-0.1036,-0.1038,-0.1022,-0.1039,-0.1045,-0.1047,-0.1048,-0.1052,-0.1049,-0.1049,-0.1024,-0.1055,-0.1054,-0.1053,-0.1053,-0.097,-0.0968,0,0,0,0,0,0,-0.1024,-0.1025,-0.1011,-0.1011,-0.1031,-0.1035,-0.1036,-0.1031,-0.1039,-0.1042,-0.1046,-0.1049,-0.105,-0.105,-0.1049,-0.1007,-0.1054,-0.1053,-0.1052,-0.0971,-0.0969,-0.0968,0,0,0,0,0,0,-0.1024,-0.1022,-0.1011,-0.1019,-0.1018,-0.1033,-0.1027,-0.1031,-0.1028,-0.1041,-0.1044,-0.1041,-0.1051,-0.105,-0.1029,-0.1007,-0.1052,-0.1051,-0.0973,-0.097,-0.0968,-0.0923,0,0,0,0,0,0,-0.1025,-0.1022,-0.1009,-0.1018,-0.1017,-0.0991,-0.1026,-0.103,-0.1026,-0.103,-0.1036,-0.1039,-0.1052,-0.1031,-0.1028,-0.1007,-0.105,-0.0975,-0.0972,-0.0969,-0.0926,-0.0919,-0.0913,0,0,0,0,0,-0.1025,-0.0997,-0.1009,-0.1007,-0.1002,-0.099,-0.0989,-0.1006,-0.1024,-0.1011,-0.1019,-0.1039,-0.1011,-0.1028,-0.1026,-0.1003,-0.0976,-0.0973,-0.0969,-0.0929,-0.0921,-0.0914,0,0,0,0,0,0,-0.0985,-0.0998,-0.1012,-0.0985,-0.0986,-0.0996,-0.098,-0.0997,-0.0992,-0.0996,-0.1016,-0.1017,-0.0992,-0.0997,-0.1016,-0.0969,-0.0997,-0.0993,-0.0967,-0.0959,-0.0953,-0.0951,-0.105,0,0,0,0,0,-0.0973,-0.0962,-0.0975,-0.095,-0.095,-0.0965,-0.096,-0.0973,-0.0975,-0.0975,-0.0982,-0.0982,-0.0973,-0.0967,-0.096,-0.0928,-0.0929,-0.0911,-0.0905,-0.09,-0.0895,-0.0876,-0.0868,-0.0956,-0.0956,-0.0956,0,0,-0.0948,-0.0954,-0.0946,-0.0942,-0.0944,-0.0932,-0.0965,-0.0951,-0.0942,-0.0973,-0.0953,-0.0957,-0.0959,-0.0932,-0.092,-0.0934,-0.0871,-0.0895,-0.0891,-0.0889,-0.0872,-0.0863,-0.0856,-0.0954,-0.0954,-0.0954,0,0,-0.0896,-0.09,-0.0879,-0.0881,-0.0884,-0.0894,-0.0888,-0.0896,-0.09,-0.0881,-0.0903,-0.0892,-0.0877,-0.0877,-0.0875,-0.0821,-0.0838,-0.0819,-0.0784,-0.0765,-0.0758,-0.0752,-0.073,-0.0723,-0.0815,-0.0815,-0.0814,0,-0.0864,-0.0847,-0.0867,-0.085,-0.0847,-0.0875,-0.0853,-0.0854,-0.0854,-0.085,-0.0867,-0.0847,-0.085,-0.0822,-0.0809,-0.0807,-0.0801,-0.0817,-0.0758,-0.0752,-0.0746,-0.0726,-0.0718,-0.0812,-0.0812,-0.0813,-0.0813,0,-0.0807,-0.0794,-0.0777,-0.0776,-0.0771,-0.0752,-0.0768,-0.0761,-0.0774,-0.0782,-0.076,-0.0766,-0.0759,-0.0754,-0.0767,-0.0727,-0.0735,-0.0754,-0.0782,-0.0735,-0.0716,-0.0708,-0.0808,-0.0809,-0.081,-0.0811,0,0,-0.0728,-0.0738,-0.0731,-0.073,-0.0735,-0.0725,-0.0707,-0.0701,-0.0693,-0.0693,-0.0676,-0.0663,-0.068,-0.0677,-0.0691,-0.0675,-0.0629,-0.0696,-0.0696,-0.0681,-0.0582,-0.0566,-0.0557,-0.0641,-0.064,-0.0639,-0.0581,0,-0.0676,-0.0646,-0.0662,-0.0629,-0.0617,-0.0643,-0.0627,-0.0628,-0.0635,-0.0625,-0.0633,-0.0622,-0.0647,-0.0645,-0.0631,-0.0637,-0.0609,-0.0642,-0.0624,-0.0624,-0.062,-0.0547,-0.053,-0.0476,-0.0574,-0.0573,-0.0572,0,-0.0611,-0.0607,-0.0572,-0.0578,-0.0573,-0.0559,-0.0553,-0.0544,-0.0545,-0.0551,-0.0547,-0.0564,-0.0546,-0.0575,-0.0548,-0.057,-0.0564,-0.0567,-0.0565,-0.0562,-0.0593,-0.054,-0.0459,-0.045,-0.0561,-0.0562,-0.0563,0,-0.0554,-0.054,-0.0517,-0.0515,-0.0522,-0.0511,-0.0513,-0.0516,-0.051,-0.0505,-0.0501,-0.0495,-0.049,-0.0484,-0.0498,-0.0518,-0.0469,-0.05,-0.0472,-0.0471,-0.0458,-0.0458,-0.0373,-0.0459,-0.0459,-0.0459,-0.0459,0,-0.0492,-0.0469,-0.0491,-0.0476,-0.0451,-0.047,-0.0445,-0.045,-0.0451,-0.0437,-0.0461,-0.0447,-0.0468,-0.0456,-0.0467,-0.0442,-0.044,-0.0443,-0.0446,-0.044,-0.0439,-0.0434,-0.0437,-0.0457,-0.0457,-0.0458,-0.0458,0,-0.0423,-0.0437,-0.0413,-0.0421,-0.0423,-0.0403,-0.041,-0.0396,-0.0405,-0.0387,-0.0384,-0.0397,-0.0384,-0.0398,-0.0387,-0.0394,-0.0359,-0.0369,-0.0358,-0.036,-0.033,-0.0332,-0.0236,-0.0224,-0.032,-0.0319,-0.0319,0,-0.0382,-0.0364,-0.0371,-0.0363,-0.0364,-0.0351,-0.0346,-0.0364,-0.0357,-0.0356,-0.0342,-0.0331,-0.0323,-0.0301,-0.0309,-0.0299,-0.0307,-0.0274,-0.0306,-0.0299,-0.0303,-0.0303,-0.03,-0.0267,-0.0266,-0.0265,-0.0264,0,-0.0306,-0.0313,-0.0304,-0.0297,-0.0289,-0.0284,-0.0281,-0.0274,-0.0293,-0.0283,-0.027,-0.0264,-0.0251,-0.0239,-0.0232,-0.0234,-0.0251,-0.0255,-0.0247,-0.0239,-0.0232,-0.0233,-0.0338,-0.0256,-0.0257,-0.0258,-0.0258,-0.0258,-0.0247,-0.0232,-0.0234,-0.0222,-0.0222,-0.0218,-0.0205,-0.0212,-0.0202,-0.0192,-0.0204,-0.0187,-0.0187,-0.018,-0.0179,-0.0165,-0.0179,-0.0169,-0.0166,-0.0162,-0.0156,-0.0237,-0.0164,-0.0165,-0.0165,-0.0165,-0.0165,0,-0.017,-0.0172,-0.0162,-0.0156,-0.0147,-0.0165,-0.0163,-0.0153,-0.0138,-0.0137,-0.0128,-0.0112,-0.01,-0.0107,-0.0097,-0.0084,-0.0092,-0.008,-0.008,-0.008,-0.0146,-0.0152,-0.0074,-0.0074,-0.0074,-0.0074,-0.0074,-0.0074,-0.0128,-0.0103,-0.0111,-0.0085,-0.0088,-0.0071,-0.0067,-0.0064,-0.0062,-0.0043,-0.0033,-0.0039,-0.004,-0.003,-0.0019,-0.0021,-0.0015,-0.0,-0.0005,-0.0066,-0.0075,-0.0084,-0.0089,0.0,0.0001,0.0061,0.0061,0.0062]},{"header":{"parameterUnit":"m.s-1","parameterCategory":1,"la1":30.2991,"la2":30.254,"lo1":-89.0895,"lo2":-89.0444,"dx":0.0017,"dy":0.0017,"nx":28,"ny":28,"refTime":"2022-12-12T03:00:00:Z","depth":0,"parameterNumber":3,"parameterNumberName":"V-component_of_WINDS"},"data":[0,0,0,0,0,0,0,0,0,0,0,0,0,0,0,0,0,0,0,0,0,0,0,0,0,0,0,0,0,0,0,0,0,0,0,0,0,0,0,0,0,0,0,0,0,0,0,0,0,0,0,0,0,0,0,0,0,0,-0.2989,-0.2988,0,-0.2944,-0.2943,-0.2943,-0.2928,-0.2928,-0.2928,-0.2929,-0.2878,-0.2877,-0.2875,0,0,0,0,0,0,0,0,0,0,0,0,0,-0.3057,-0.3056,-0.2989,-0.2988,-0.2988,-0.2944,-0.2943,-0.2943,-0.2928,-0.2928,-0.2928,-0.2929,-0.2879,-0.2877,-0.2875,0,0,0,0,0,0,0,0,0,0,0,0,0,-0.3021,-0.3056,-0.2989,-0.2975,-0.2974,-0.2944,-0.2943,-0.2943,-0.2928,-0.2928,-0.2928,-0.2929,-0.2879,-0.2877,-0.2875,-0.2855,0,0,-0.2868,-0.2867,0,0,0,0,0,0,0,0,-0.3024,-0.3019,-0.2978,-0.2976,-0.2974,-0.2942,-0.2949,-0.2913,-0.2928,-0.2945,-0.2929,-0.2929,-0.2899,-0.2895,-0.2886,-0.2852,-0.285,-0.2868,-0.2866,-0.2865,-0.2865,0,0,0,0,0,0,0,-0.3026,-0.3021,-0.2971,-0.2977,-0.2975,-0.297,-0.2965,-0.2942,-0.2921,-0.2944,-0.2942,-0.2938,-0.2898,-0.2888,-0.2884,-0.2849,-0.2868,-0.2866,-0.2864,-0.2863,-0.2796,-0.2796,0,0,0,0,0,0,-0.3031,-0.3023,-0.2972,-0.297,-0.3,-0.2968,-0.2963,-0.2952,-0.2921,-0.2917,-0.2937,-0.2937,-0.2892,-0.2887,-0.2883,-0.2857,-0.2865,-0.2863,-0.2862,-0.2797,-0.2796,-0.2796,0,0,0,0,0,0,-0.3033,-0.3027,-0.2974,-0.2996,-0.2989,-0.2967,-0.2954,-0.2951,-0.2941,-0.2916,-0.2912,-0.2931,-0.2892,-0.2886,-0.2862,-0.2855,-0.2862,-0.286,-0.2797,-0.2797,-0.2796,-0.2805,0,0,0,0,0,0,-0.3035,-0.3028,-0.3021,-0.2996,-0.2988,-0.2956,-0.2954,-0.295,-0.2938,-0.2937,-0.291,-0.2905,-0.2892,-0.2865,-0.286,-0.2852,-0.2858,-0.2798,-0.2797,-0.2796,-0.2805,-0.2805,-0.2805,0,0,0,0,0,-0.3038,-0.3024,-0.3021,-0.3015,-0.2979,-0.2955,-0.295,-0.2936,-0.2937,-0.2929,-0.2913,-0.2906,-0.2857,-0.2863,-0.2856,-0.2848,-0.2798,-0.2797,-0.2796,-0.2806,-0.2805,-0.2805,0,0,0,0,0,0,-0.3048,-0.3021,-0.3016,-0.2995,-0.2978,-0.2953,-0.2943,-0.2936,-0.2917,-0.2917,-0.2898,-0.2892,-0.287,-0.2856,-0.2864,-0.2826,-0.2827,-0.2825,-0.2836,-0.2836,-0.2835,-0.2839,-0.2856,0,0,0,0,0,-0.3048,-0.3032,-0.3009,-0.2992,-0.2984,-0.2965,-0.2954,-0.2945,-0.2925,-0.2917,-0.29,-0.288,-0.286,-0.2847,-0.2827,-0.2803,-0.2797,-0.2794,-0.2794,-0.2793,-0.2792,-0.2778,-0.2776,-0.2793,-0.2793,-0.2793,0,0,-0.3047,-0.303,-0.3021,-0.2994,-0.2979,-0.2962,-0.2959,-0.2941,-0.2927,-0.2914,-0.2891,-0.2877,-0.2854,-0.283,-0.2818,-0.2818,-0.2785,-0.2792,-0.2792,-0.279,-0.2777,-0.2775,-0.2774,-0.2792,-0.2792,-0.2792,0,0,-0.3037,-0.3024,-0.3008,-0.2994,-0.2972,-0.296,-0.2956,-0.2932,-0.2923,-0.29,-0.2889,-0.2872,-0.2838,-0.2822,-0.2809,-0.2793,-0.2785,-0.2787,-0.2785,-0.2771,-0.277,-0.2769,-0.2763,-0.2761,-0.2785,-0.2785,-0.2785,0,-0.3039,-0.3014,-0.3001,-0.2984,-0.2971,-0.296,-0.2943,-0.293,-0.2902,-0.2893,-0.2893,-0.285,-0.2834,-0.2806,-0.2802,-0.2792,-0.2786,-0.279,-0.2772,-0.277,-0.2769,-0.2763,-0.276,-0.2785,-0.2785,-0.2785,-0.2785,0,-0.3017,-0.3,-0.299,-0.2965,-0.2952,-0.2935,-0.2918,-0.2905,-0.2897,-0.2884,-0.286,-0.2839,-0.2815,-0.2808,-0.2799,-0.2778,-0.2779,-0.2775,-0.2775,-0.2768,-0.2762,-0.2759,-0.2786,-0.2786,-0.2786,-0.2786,0,0,-0.3012,-0.2981,-0.2978,-0.2966,-0.2941,-0.2927,-0.2909,-0.2887,-0.2877,-0.2858,-0.2842,-0.2813,-0.281,-0.2795,-0.2784,-0.2773,-0.2761,-0.2771,-0.277,-0.2769,-0.2736,-0.2739,-0.2737,-0.2756,-0.2755,-0.2755,-0.2738,0,-0.2999,-0.2969,-0.2956,-0.2931,-0.2915,-0.2903,-0.2887,-0.287,-0.2857,-0.284,-0.2825,-0.2805,-0.2803,-0.2794,-0.2782,-0.2765,-0.2754,-0.2766,-0.2739,-0.2739,-0.2746,-0.2734,-0.2737,-0.2722,-0.2736,-0.2736,-0.2735,0,-0.298,-0.2963,-0.2937,-0.2914,-0.2907,-0.2893,-0.2871,-0.2856,-0.2835,-0.2826,-0.281,-0.28,-0.2779,-0.2781,-0.2752,-0.276,-0.2748,-0.2738,-0.2737,-0.2734,-0.2737,-0.273,-0.2717,-0.2715,-0.2731,-0.2732,-0.2732,0,-0.298,-0.2949,-0.293,-0.292,-0.2893,-0.2884,-0.2872,-0.2852,-0.2839,-0.282,-0.2811,-0.2789,-0.2776,-0.2759,-0.2742,-0.2745,-0.2714,-0.2715,-0.2706,-0.2706,-0.27,-0.27,-0.2685,-0.2692,-0.2692,-0.2692,-0.2692,0,-0.2966,-0.2951,-0.2929,-0.2917,-0.2899,-0.2883,-0.2865,-0.2852,-0.2834,-0.2818,-0.2806,-0.2791,-0.277,-0.2752,-0.2739,-0.2716,-0.2711,-0.2702,-0.2699,-0.2703,-0.2704,-0.2695,-0.2696,-0.2692,-0.2692,-0.2692,-0.2692,0,-0.2963,-0.2948,-0.2926,-0.2902,-0.2896,-0.2883,-0.2862,-0.2849,-0.2836,-0.2816,-0.281,-0.2789,-0.2767,-0.2749,-0.2719,-0.271,-0.2687,-0.2683,-0.2695,-0.2693,-0.2685,-0.2686,-0.2662,-0.2658,-0.2669,-0.2669,-0.2669,0,-0.2955,-0.2943,-0.2919,-0.2908,-0.2897,-0.2879,-0.2867,-0.2851,-0.2838,-0.2813,-0.2803,-0.278,-0.2762,-0.2727,-0.2708,-0.2685,-0.268,-0.2674,-0.2677,-0.2681,-0.268,-0.2681,-0.2679,-0.2673,-0.2673,-0.2673,-0.2673,0,-0.2943,-0.2937,-0.292,-0.2901,-0.2886,-0.287,-0.2853,-0.2844,-0.2825,-0.281,-0.2789,-0.2774,-0.2745,-0.2722,-0.2698,-0.2684,-0.2675,-0.2673,-0.2669,-0.2674,-0.2681,-0.2677,-0.2694,-0.2673,-0.2673,-0.2673,-0.2673,-0.2673,-0.2937,-0.2926,-0.2907,-0.2889,-0.2874,-0.2859,-0.2846,-0.2831,-0.2813,-0.2789,-0.2781,-0.2758,-0.2737,-0.2703,-0.2689,-0.267,-0.2669,-0.2664,-0.2663,-0.2662,-0.2663,-0.2684,-0.2665,-0.2665,-0.2665,-0.2665,-0.2665,0,-0.2925,-0.2912,-0.2896,-0.2873,-0.2858,-0.2853,-0.2833,-0.2821,-0.2802,-0.2783,-0.2766,-0.274,-0.2718,-0.2698,-0.2674,-0.2663,-0.2658,-0.2657,-0.2658,-0.2655,-0.2665,-0.267,-0.2662,-0.2662,-0.2662,-0.2662,-0.2662,-0.2662,-0.2917,-0.2897,-0.2888,-0.2861,-0.2848,-0.2827,-0.2817,-0.2802,-0.2787,-0.276,-0.2742,-0.273,-0.271,-0.2685,-0.2664,-0.2658,-0.265,-0.265,-0.2644,-0.2653,-0.2654,-0.2655,-0.2659,-0.2649,-0.2649,-0.2635,-0.2635,-0.2635]}]]